TimeEDT,TemperatureF,Dew PointF,Humidity,Sea Level PressureIn,VisibilityMPH,Wind Direction,Wind SpeedMPH,Gust SpeedMPH,PrecipitationIn,Events,Conditions,WindDirDegrees,DateUTC
12:04 AM,55.4,55.4,100,29.75,6.0,SSW,4.6,-,N/A,,Mostly Cloudy,200,2013-10-16 04:04:00
12:25 AM,57.2,57.2,100,29.76,8.0,SW,6.9,-,N/A,,Overcast,220,2013-10-16 04:25:00
12:53 AM,57.0,55.9,96,29.75,8.0,SSW,5.8,-,N/A,,Overcast,200,2013-10-16 04:53:00
1:28 AM,55.4,55.4,100,29.74,7.0,SSW,5.8,-,N/A,,Overcast,200,2013-10-16 05:28:00
1:53 AM,57.0,55.9,96,29.74,7.0,South,5.8,-,N/A,,Overcast,190,2013-10-16 05:53:00
2:06 AM,57.2,55.4,94,29.74,6.0,SSW,8.1,-,N/A,,Overcast,200,2013-10-16 06:06:00
2:16 AM,57.2,55.4,94,29.74,7.0,South,9.2,-,N/A,,Overcast,190,2013-10-16 06:16:00
2:23 AM,57.2,55.4,94,29.75,8.0,SSW,9.2,-,N/A,,Overcast,200,2013-10-16 06:23:00
2:38 AM,57.2,55.4,94,29.74,9.0,SW,10.4,-,N/A,,Overcast,230,2013-10-16 06:38:00
2:53 AM,57.0,53.1,87,29.75,10.0,WSW,13.8,-,N/A,,Mostly Cloudy,250,2013-10-16 06:53:00
3:53 AM,54.0,50.0,86,29.75,10.0,SW,11.5,-,N/A,,Clear,230,2013-10-16 07:53:00
4:53 AM,51.1,46.0,83,29.76,10.0,WSW,11.5,23.0,N/A,,Clear,240,2013-10-16 08:53:00
5:53 AM,50.0,46.0,86,29.75,10.0,SSW,8.1,-,N/A,,Mostly Cloudy,210,2013-10-16 09:53:00
6:53 AM,50.0,46.0,86,29.75,10.0,SW,12.7,18.4,N/A,,Overcast,220,2013-10-16 10:53:00
7:53 AM,48.9,46.0,90,29.74,10.0,SW,10.4,17.3,N/A,,Overcast,220,2013-10-16 11:53:00
8:53 AM,48.9,46.0,90,29.75,10.0,SW,12.7,-,N/A,,Overcast,230,2013-10-16 12:53:00
9:41 AM,50.0,46.4,87,29.74,10.0,SW,12.7,18.4,N/A,,Overcast,220,2013-10-16 13:41:00
9:53 AM,48.9,46.0,90,29.75,10.0,SW,10.4,-,N/A,,Overcast,230,2013-10-16 13:53:00
10:13 AM,48.2,46.4,93,29.74,7.0,SW,11.5,-,N/A,,Overcast,220,2013-10-16 14:13:00
10:31 AM,50.0,46.4,87,29.74,10.0,SW,11.5,-,N/A,,Overcast,220,2013-10-16 14:31:00
10:53 AM,50.0,46.9,89,29.75,10.0,SW,12.7,-,N/A,,Overcast,230,2013-10-16 14:53:00
11:24 AM,50.0,48.2,94,29.75,3.0,SW,12.7,-,N/A,,Overcast,230,2013-10-16 15:24:00
11:53 AM,50.0,48.0,93,29.76,4.0,WSW,11.5,-,N/A,,Overcast,250,2013-10-16 15:53:00
12:05 PM,50.0,48.2,94,29.75,2.0,WSW,10.4,-,0.01,Rain,Light Rain,250,2013-10-16 16:05:00
12:14 PM,50.0,48.2,94,29.75,5.0,WSW,9.2,-,0.01,,Overcast,240,2013-10-16 16:14:00
12:44 PM,51.8,48.2,88,29.75,10.0,WSW,11.5,20.7,0.01,,Overcast,250,2013-10-16 16:44:00
12:53 PM,53.1,48.9,86,29.76,10.0,WSW,9.2,-,0.01,,Overcast,250,2013-10-16 16:53:00
1:50 PM,53.6,46.4,77,29.75,10.0,WSW,13.8,20.7,N/A,,Overcast,250,2013-10-16 17:50:00
1:53 PM,53.1,46.9,80,29.76,10.0,WSW,13.8,20.7,N/A,,Overcast,250,2013-10-16 17:53:00
2:06 PM,53.6,48.2,82,29.75,10.0,West,9.2,-,N/A,,Overcast,260,2013-10-16 18:06:00
2:14 PM,53.6,46.4,77,29.75,10.0,West,10.4,-,N/A,,Overcast,260,2013-10-16 18:14:00
2:28 PM,53.6,46.4,77,29.74,10.0,WSW,15.0,23.0,N/A,,Overcast,240,2013-10-16 18:28:00
2:53 PM,53.1,46.9,80,29.75,10.0,WSW,13.8,19.6,0.00,Rain,Light Rain,240,2013-10-16 18:53:00
3:53 PM,51.1,48.0,89,29.77,3.0,West,10.4,19.6,0.00,,Overcast,260,2013-10-16 19:53:00
3:59 PM,51.8,48.2,88,29.76,4.0,WSW,12.7,-,N/A,,Overcast,250,2013-10-16 19:59:00
4:19 PM,51.8,48.2,88,29.76,3.0,WSW,10.4,-,N/A,,Overcast,250,2013-10-16 20:19:00
4:26 PM,51.8,48.2,88,29.76,2.0,WSW,10.4,-,N/A,,Overcast,250,2013-10-16 20:26:00
4:42 PM,51.8,48.2,88,29.76,3.0,West,12.7,19.6,N/A,,Overcast,260,2013-10-16 20:42:00
4:53 PM,51.1,48.9,92,29.78,4.0,West,12.7,18.4,N/A,,Overcast,260,2013-10-16 20:53:00
5:14 PM,51.8,50.0,94,29.77,3.0,West,10.4,18.4,N/A,,Overcast,260,2013-10-16 21:14:00
5:30 PM,50.0,48.2,94,29.78,2.0,WNW,10.4,-,0.01,Rain,Rain,300,2013-10-16 21:30:00
5:43 PM,50.0,48.2,94,29.78,9.0,NW,9.2,-,0.02,,Overcast,310,2013-10-16 21:43:00
5:53 PM,50.0,48.0,93,29.80,5.0,NW,8.1,-,0.02,,Overcast,320,2013-10-16 21:53:00
6:41 PM,48.2,46.4,93,29.80,10.0,NW,10.4,-,N/A,,Overcast,310,2013-10-16 22:41:00
6:53 PM,48.9,46.9,93,29.82,10.0,NW,8.1,-,N/A,,Overcast,310,2013-10-16 22:53:00
7:00 PM,48.2,46.4,93,29.81,10.0,NW,9.2,-,N/A,,Overcast,310,2013-10-16 23:00:00
7:48 PM,48.2,46.4,93,29.83,10.0,NW,6.9,-,N/A,,Overcast,310,2013-10-16 23:48:00
7:53 PM,48.9,46.9,93,29.85,10.0,WNW,10.4,-,N/A,,Overcast,300,2013-10-16 23:53:00
8:35 PM,48.2,46.4,93,29.84,10.0,NW,8.1,-,N/A,,Overcast,310,2013-10-17 00:35:00
8:53 PM,48.0,46.0,93,29.86,10.0,WNW,8.1,-,N/A,,Overcast,290,2013-10-17 00:53:00
9:49 PM,48.2,46.4,93,29.86,10.0,WNW,6.9,-,N/A,,Overcast,300,2013-10-17 01:49:00
9:53 PM,48.0,46.0,93,29.87,10.0,NW,6.9,-,N/A,,Overcast,310,2013-10-17 01:53:00
10:44 PM,48.2,44.6,87,29.86,10.0,WNW,8.1,-,N/A,,Overcast,300,2013-10-17 02:44:00
10:53 PM,48.0,45.0,89,29.88,10.0,WNW,8.1,-,N/A,,Overcast,290,2013-10-17 02:53:00
11:53 PM,46.9,45.0,93,29.88,10.0,WNW,4.6,-,N/A,,Overcast,300,2013-10-17 03:53:00